Time,TemperatureF,DewpointF,PressureIn,WindDirection,WindDirectionDegrees,WindSpeedMPH,WindSpeedGustMPH,Humidity,HourlyPrecipIn,Conditions,Clouds,dailyrainin,SolarRadiationWatts/m^2,SoftwareType,DateUTC
2013-11-11 00:03:00,43.4,41.2,30.28,SE,126,0.0,0.0,92,0.00,CLR,,0.00,0.0,WeatherDisplay:10.37,2013-11-11 06:03:00,
2013-11-11 00:08:00,43.4,41.2,30.28,SE,126,0.0,0.0,92,0.00,CLR,,0.00,0.0,WeatherDisplay:10.37,2013-11-11 06:08:00,
2013-11-11 00:13:00,43.3,41.1,30.28,SE,126,0.0,0.0,92,0.00,CLR,,0.00,0.0,WeatherDisplay:10.37,2013-11-11 06:13:00,
2013-11-11 00:18:00,43.0,40.8,30.28,SE,126,0.0,0.0,92,0.00,CLR,,0.00,0.0,WeatherDisplay:10.37,2013-11-11 06:18:00,
2013-11-11 00:23:00,42.8,40.6,30.28,SE,126,0.0,0.0,92,0.00,CLR,,0.00,0.0,WeatherDisplay:10.37,2013-11-11 06:23:00,
2013-11-11 00:28:00,42.9,40.7,30.28,SE,126,0.0,0.0,92,0.00,CLR,,0.00,0.0,WeatherDisplay:10.37,2013-11-11 06:28:00,
2013-11-11 00:33:00,42.8,40.6,30.28,SE,126,0.0,0.0,92,0.00,CLR,,0.00,0.0,WeatherDisplay:10.37,2013-11-11 06:33:00,
2013-11-11 00:38:00,42.6,40.4,30.28,SE,126,0.0,0.0,92,0.00,CLR,,0.00,0.0,WeatherDisplay:10.37,2013-11-11 06:38:00,
2013-11-11 00:43:00,42.6,40.4,30.28,SE,126,0.0,0.0,92,0.00,CLR,,0.00,0.0,WeatherDisplay:10.37,2013-11-11 06:43:00,
2013-11-11 00:48:00,42.6,40.4,30.28,SE,126,0.0,0.0,92,0.00,CLR,,0.00,0.0,WeatherDisplay:10.37,2013-11-11 06:48:00,
2013-11-11 00:53:00,42.4,40.2,30.28,SE,126,0.0,0.0,92,0.00,CLR,,0.00,0.0,WeatherDisplay:10.37,2013-11-11 06:53:00,
2013-11-11 00:58:00,42.1,39.9,30.28,SE,126,0.0,0.0,92,0.00,CLR,,0.00,0.0,WeatherDisplay:10.37,2013-11-11 06:58:00,
2013-11-11 01:03:00,42.2,40.0,30.28,SE,126,0.0,0.0,92,0.00,CLR,,0.00,0.0,WeatherDisplay:10.37,2013-11-11 07:03:00,
2013-11-11 01:08:00,42.0,40.1,30.28,SE,126,0.0,0.0,93,0.00,CLR,,0.00,0.0,WeatherDisplay:10.37,2013-11-11 07:08:00,
2013-11-11 01:13:00,42.0,40.1,30.28,SE,126,0.0,0.0,93,0.00,CLR,,0.00,0.0,WeatherDisplay:10.37,2013-11-11 07:13:00,
2013-11-11 01:18:00,42.1,40.2,30.28,SE,126,0.0,0.0,93,0.00,CLR,,0.00,0.0,WeatherDisplay:10.37,2013-11-11 07:18:00,
2013-11-11 01:23:00,41.8,39.9,30.28,SE,126,0.0,0.0,93,0.00,CLR,,0.00,0.0,WeatherDisplay:10.37,2013-11-11 07:23:00,
2013-11-11 01:28:00,42.0,40.1,30.27,SE,126,0.0,0.0,93,0.00,CLR,,0.00,0.0,WeatherDisplay:10.37,2013-11-11 07:28:00,
2013-11-11 01:33:00,41.9,40.0,30.27,SE,126,0.0,0.0,93,0.00,CLR,,0.00,0.0,WeatherDisplay:10.37,2013-11-11 07:33:00,
2013-11-11 01:38:00,41.9,40.0,30.28,SE,126,0.0,0.0,93,0.00,CLR,,0.00,0.0,WeatherDisplay:10.37,2013-11-11 07:38:00,
2013-11-11 01:43:00,41.7,39.8,30.27,SE,126,0.0,0.0,93,0.00,CLR,,0.00,0.0,WeatherDisplay:10.37,2013-11-11 07:43:00,
2013-11-11 01:48:00,41.6,39.7,30.27,SE,126,0.0,0.0,93,0.00,CLR,,0.00,0.0,WeatherDisplay:10.37,2013-11-11 07:48:00,
2013-11-11 01:53:00,41.5,39.6,30.27,SE,126,0.0,0.0,93,0.00,CLR,,0.00,0.0,WeatherDisplay:10.37,2013-11-11 07:53:00,
2013-11-11 01:58:00,41.4,39.5,30.27,SE,126,0.0,0.0,93,0.00,CLR,,0.00,0.0,WeatherDisplay:10.37,2013-11-11 07:58:00,
2013-11-11 02:03:00,41.5,39.6,30.27,SE,126,0.0,0.0,93,0.00,CLR,,0.00,0.0,WeatherDisplay:10.37,2013-11-11 08:03:00,
2013-11-11 02:08:00,41.3,39.4,30.27,SE,126,0.0,0.0,93,0.00,CLR,,0.00,0.0,WeatherDisplay:10.37,2013-11-11 08:08:00,
2013-11-11 02:13:00,41.3,39.4,30.27,SE,126,0.0,0.0,93,0.00,CLR,,0.00,0.0,WeatherDisplay:10.37,2013-11-11 08:13:00,
2013-11-11 02:18:00,41.1,39.2,30.27,SE,126,0.0,0.0,93,0.00,CLR,,0.00,0.0,WeatherDisplay:10.37,2013-11-11 08:18:00,
2013-11-11 02:23:00,41.0,39.1,30.27,SE,126,0.0,0.0,93,0.00,CLR,,0.00,0.0,WeatherDisplay:10.37,2013-11-11 08:23:00,
2013-11-11 02:28:00,41.1,39.2,30.27,SE,126,0.0,0.0,93,0.00,CLR,,0.00,0.0,WeatherDisplay:10.37,2013-11-11 08:28:00,
2013-11-11 02:33:00,41.1,39.2,30.27,SE,126,0.0,0.0,93,0.00,CLR,,0.00,0.0,WeatherDisplay:10.37,2013-11-11 08:33:00,
2013-11-11 02:38:00,41.0,39.1,30.27,SE,126,0.0,0.0,93,0.00,CLR,,0.00,0.0,WeatherDisplay:10.37,2013-11-11 08:38:00,
2013-11-11 02:43:00,41.0,39.1,30.27,SE,126,0.0,0.0,93,0.00,CLR,,0.00,0.0,WeatherDisplay:10.37,2013-11-11 08:43:00,
2013-11-11 02:48:00,40.9,39.0,30.27,SE,126,0.0,0.0,93,0.00,CLR,,0.00,0.0,WeatherDisplay:10.37,2013-11-11 08:48:00,
2013-11-11 02:53:00,40.8,38.9,30.27,SE,126,0.0,0.0,93,0.00,CLR,,0.00,0.0,WeatherDisplay:10.37,2013-11-11 08:53:00,
2013-11-11 02:58:00,40.5,38.6,30.27,SE,126,0.0,0.0,93,0.00,CLR,,0.00,0.0,WeatherDisplay:10.37,2013-11-11 08:58:00,
2013-11-11 03:04:00,40.5,38.6,30.27,SE,126,0.0,0.0,93,0.00,CLR,,0.00,0.0,WeatherDisplay:10.37,2013-11-11 09:04:00,
2013-11-11 03:09:00,40.8,38.9,30.27,SE,126,0.0,0.0,93,0.00,CLR,,0.00,0.0,WeatherDisplay:10.37,2013-11-11 09:09:00,
2013-11-11 03:14:00,40.7,38.8,30.27,SE,126,0.0,0.0,93,0.00,CLR,,0.00,0.0,WeatherDisplay:10.37,2013-11-11 09:14:00,
2013-11-11 03:19:00,40.5,38.6,30.27,SE,126,0.0,0.0,93,0.00,CLR,,0.00,0.0,WeatherDisplay:10.37,2013-11-11 09:19:00,
2013-11-11 03:24:00,40.3,38.4,30.27,SE,126,0.0,0.0,93,0.00,CLR,,0.00,0.0,WeatherDisplay:10.37,2013-11-11 09:24:00,
2013-11-11 03:29:00,40.5,38.6,30.27,SE,126,0.0,0.0,93,0.00,CLR,,0.00,0.0,WeatherDisplay:10.37,2013-11-11 09:29:00,
2013-11-11 03:34:00,40.5,38.6,30.27,SE,126,0.0,0.0,93,0.00,CLR,,0.00,0.0,WeatherDisplay:10.37,2013-11-11 09:34:00,
2013-11-11 03:39:00,40.5,38.6,30.27,SE,126,0.0,0.0,93,0.00,CLR,,0.00,0.0,WeatherDisplay:10.37,2013-11-11 09:39:00,
2013-11-11 03:44:00,40.2,38.3,30.27,SE,126,0.0,0.0,93,0.00,CLR,,0.00,0.0,WeatherDisplay:10.37,2013-11-11 09:44:00,
2013-11-11 03:49:00,40.1,38.2,30.27,SE,126,0.0,0.0,93,0.00,CLR,,0.00,0.0,WeatherDisplay:10.37,2013-11-11 09:49:00,
2013-11-11 03:54:00,40.0,38.1,30.27,SE,126,0.0,0.0,93,0.00,CLR,,0.00,0.0,WeatherDisplay:10.37,2013-11-11 09:54:00,
2013-11-11 03:59:00,39.7,37.8,30.27,SE,126,0.0,0.0,93,0.00,CLR,,0.00,0.0,WeatherDisplay:10.37,2013-11-11 09:59:00,
2013-11-11 04:04:00,39.6,37.7,30.27,SE,126,0.0,0.0,93,0.00,FEW,,0.00,0.0,WeatherDisplay:10.37,2013-11-11 10:04:00,
2013-11-11 04:09:00,39.5,37.6,30.28,SE,126,0.0,0.0,93,0.00,FEW,,0.00,0.0,WeatherDisplay:10.37,2013-11-11 10:09:00,
2013-11-11 04:14:00,39.7,37.8,30.27,SE,126,0.0,0.0,93,0.00,FEW,,0.00,0.0,WeatherDisplay:10.37,2013-11-11 10:14:00,
2013-11-11 04:19:00,39.7,37.8,30.27,SE,126,0.0,0.0,93,0.00,FEW,,0.00,0.0,WeatherDisplay:10.37,2013-11-11 10:19:00,
2013-11-11 04:24:00,39.6,37.7,30.27,SE,126,0.0,0.0,93,0.00,FEW,,0.00,0.0,WeatherDisplay:10.37,2013-11-11 10:24:00,
2013-11-11 04:29:00,39.7,37.8,30.27,SE,126,0.0,0.0,93,0.00,FEW,,0.00,0.0,WeatherDisplay:10.37,2013-11-11 10:29:00,
2013-11-11 04:34:00,39.7,37.8,30.28,SE,126,0.0,0.0,93,0.00,FEW,,0.00,0.0,WeatherDisplay:10.37,2013-11-11 10:34:00,
2013-11-11 04:39:00,39.7,37.8,30.28,SE,126,0.0,0.0,93,0.00,FEW,,0.00,0.0,WeatherDisplay:10.37,2013-11-11 10:39:00,
2013-11-11 04:44:00,39.9,38.3,30.28,SE,126,0.0,0.0,94,0.00,FEW,,0.00,0.0,WeatherDisplay:10.37,2013-11-11 10:44:00,
2013-11-11 04:49:00,39.6,37.7,30.28,SE,126,0.0,0.0,93,0.00,FEW,,0.00,0.0,WeatherDisplay:10.37,2013-11-11 10:49:00,
2013-11-11 04:54:00,39.6,37.7,30.28,SE,126,0.0,0.0,93,0.00,FEW,,0.00,0.0,WeatherDisplay:10.37,2013-11-11 10:54:00,
2013-11-11 04:59:00,39.6,37.7,30.28,SE,126,0.0,0.0,93,0.00,FEW,,0.00,0.0,WeatherDisplay:10.37,2013-11-11 10:59:00,
2013-11-11 05:04:00,39.5,37.6,30.28,SE,126,0.0,0.0,93,0.00,OVC,,0.00,0.0,WeatherDisplay:10.37,2013-11-11 11:04:00,
2013-11-11 05:09:00,39.4,37.5,30.28,SE,126,0.0,0.0,93,0.00,OVC,,0.00,0.0,WeatherDisplay:10.37,2013-11-11 11:09:00,
2013-11-11 05:14:00,39.5,37.6,30.28,SE,126,0.0,0.0,93,0.00,OVC,,0.00,0.0,WeatherDisplay:10.37,2013-11-11 11:14:00,
2013-11-11 05:19:00,39.3,37.7,30.28,SE,126,0.0,0.0,94,0.00,OVC,,0.00,0.0,WeatherDisplay:10.37,2013-11-11 11:19:00,
2013-11-11 05:24:00,39.0,37.1,30.28,SE,126,0.0,0.0,93,0.00,OVC,,0.00,0.0,WeatherDisplay:10.37,2013-11-11 11:24:00,
2013-11-11 05:29:00,39.0,37.1,30.28,SE,126,0.0,0.0,93,0.00,OVC,,0.00,0.0,WeatherDisplay:10.37,2013-11-11 11:29:00,
2013-11-11 05:34:00,39.1,37.2,30.28,SE,126,0.0,0.0,93,0.00,OVC,,0.00,0.0,WeatherDisplay:10.37,2013-11-11 11:34:00,
2013-11-11 05:39:00,39.0,37.1,30.28,SE,126,0.0,0.0,93,0.00,OVC,,0.00,0.0,WeatherDisplay:10.37,2013-11-11 11:39:00,
2013-11-11 05:44:00,39.0,37.1,30.28,SE,126,0.0,0.0,93,0.00,OVC,,0.00,0.0,WeatherDisplay:10.37,2013-11-11 11:44:00,
2013-11-11 05:49:00,39.0,37.4,30.28,SE,126,0.0,0.0,94,0.00,OVC,,0.00,0.0,WeatherDisplay:10.37,2013-11-11 11:49:00,
2013-11-11 05:54:00,38.9,37.3,30.28,SE,126,0.0,0.0,94,0.00,OVC,,0.00,0.0,WeatherDisplay:10.37,2013-11-11 11:54:00,
2013-11-11 05:59:00,38.9,37.3,30.28,SE,126,0.0,0.0,94,0.00,OVC,,0.00,0.0,WeatherDisplay:10.37,2013-11-11 11:59:00,
2013-11-11 06:04:00,38.9,37.3,30.29,SE,126,0.0,0.0,94,0.00,OVC,,0.00,0.0,WeatherDisplay:10.37,2013-11-11 12:04:00,
2013-11-11 06:09:00,38.9,37.3,30.28,SE,126,0.0,0.0,94,0.00,OVC,,0.00,0.0,WeatherDisplay:10.37,2013-11-11 12:09:00,
2013-11-11 06:14:00,38.7,37.1,30.29,SE,126,0.0,0.0,94,0.00,OVC,,0.00,0.0,WeatherDisplay:10.37,2013-11-11 12:14:00,
2013-11-11 06:19:00,38.8,37.2,30.29,SE,126,0.0,0.0,94,0.00,OVC,,0.00,0.0,WeatherDisplay:10.37,2013-11-11 12:19:00,
2013-11-11 06:24:00,38.9,37.3,30.29,SE,126,0.0,0.0,94,0.00,OVC,,0.00,0.0,WeatherDisplay:10.37,2013-11-11 12:24:00,
2013-11-11 06:29:00,39.1,37.5,30.29,SE,126,0.0,0.0,94,0.00,OVC,,0.00,0.0,WeatherDisplay:10.37,2013-11-11 12:29:00,
2013-11-11 06:34:00,39.6,38.0,30.29,SE,126,0.0,0.0,94,0.00,OVC,,0.00,0.0,WeatherDisplay:10.37,2013-11-11 12:34:00,
2013-11-11 06:39:00,40.1,38.5,30.29,SE,126,0.0,0.0,94,0.00,OVC,,0.00,0.0,WeatherDisplay:10.37,2013-11-11 12:39:00,
2013-11-11 06:44:00,40.5,38.9,30.29,SE,126,0.0,0.0,94,0.00,OVC,,0.00,0.0,WeatherDisplay:10.37,2013-11-11 12:44:00,
2013-11-11 06:49:00,40.9,39.3,30.29,SE,126,0.0,0.0,94,0.00,OVC,,0.00,5.0,WeatherDisplay:10.37,2013-11-11 12:49:00,
2013-11-11 06:54:00,41.2,39.6,30.29,SE,126,0.0,0.0,94,0.00,OVC,,0.00,9.0,WeatherDisplay:10.37,2013-11-11 12:54:00,
2013-11-11 06:59:00,41.5,39.9,30.29,SE,126,0.0,0.0,94,0.00,OVC,,0.00,12.0,WeatherDisplay:10.37,2013-11-11 12:59:00,
2013-11-11 07:04:00,41.8,40.2,30.29,SE,126,0.0,0.0,94,0.00,CLR,,0.00,16.0,WeatherDisplay:10.37,2013-11-11 13:04:00,
2013-11-11 07:09:00,42.1,40.5,30.29,SE,126,0.0,0.0,94,0.00,CLR,,0.00,19.0,WeatherDisplay:10.37,2013-11-11 13:09:00,
2013-11-11 07:14:00,42.5,40.9,30.29,SE,126,0.0,0.0,94,0.00,CLR,,0.00,33.0,WeatherDisplay:10.37,2013-11-11 13:14:00,
2013-11-11 07:19:00,42.7,41.1,30.29,SE,126,0.0,0.0,94,0.00,CLR,,0.00,33.0,WeatherDisplay:10.37,2013-11-11 13:19:00,
2013-11-11 07:24:00,43.2,41.6,30.29,SE,126,0.0,0.0,94,0.00,CLR,,0.00,56.0,WeatherDisplay:10.37,2013-11-11 13:24:00,
2013-11-11 07:29:00,43.7,42.1,30.30,SE,126,0.0,0.0,94,0.00,CLR,,0.00,58.0,WeatherDisplay:10.37,2013-11-11 13:29:00,
2013-11-11 07:34:00,44.0,42.4,30.30,SE,126,0.0,0.0,94,0.00,CLR,,0.00,39.0,WeatherDisplay:10.37,2013-11-11 13:34:00,
2013-11-11 07:39:00,44.2,42.6,30.29,SE,126,0.0,0.0,94,0.00,CLR,,0.00,47.0,WeatherDisplay:10.37,2013-11-11 13:39:00,
2013-11-11 07:44:00,44.3,42.7,30.29,SE,126,0.0,0.0,94,0.00,CLR,,0.00,33.0,WeatherDisplay:10.37,2013-11-11 13:44:00,
2013-11-11 07:49:00,44.2,42.6,30.30,SE,126,0.0,0.0,94,0.00,CLR,,0.00,39.0,WeatherDisplay:10.37,2013-11-11 13:49:00,
2013-11-11 07:54:00,44.2,42.6,30.30,SE,126,0.0,0.0,94,0.00,CLR,,0.00,37.0,WeatherDisplay:10.37,2013-11-11 13:54:00,
2013-11-11 07:59:00,44.2,42.3,30.30,SE,126,0.0,0.0,93,0.00,CLR,,0.00,39.0,WeatherDisplay:10.37,2013-11-11 13:59:00,
2013-11-11 08:04:00,44.2,42.3,30.30,SE,126,0.0,0.0,93,0.00,CLR,,0.00,40.0,WeatherDisplay:10.37,2013-11-11 14:04:00,
2013-11-11 08:09:00,44.2,42.3,30.30,SE,126,0.0,0.0,93,0.00,CLR,,0.00,69.0,WeatherDisplay:10.37,2013-11-11 14:09:00,
2013-11-11 08:14:00,44.8,42.9,30.30,SE,126,0.2,1.3,93,0.00,CLR,,0.00,225.0,WeatherDisplay:10.37,2013-11-11 14:14:00,
2013-11-11 08:19:00,46.0,44.4,30.30,SE,126,0.0,0.0,94,0.00,CLR,,0.00,239.0,WeatherDisplay:10.37,2013-11-11 14:19:00,
2013-11-11 08:24:00,46.9,44.7,30.30,SE,126,0.0,0.0,92,0.00,CLR,,0.00,255.0,WeatherDisplay:10.37,2013-11-11 14:24:00,
2013-11-11 08:29:00,47.9,44.8,30.30,SE,126,0.0,0.0,89,0.00,CLR,,0.00,258.0,WeatherDisplay:10.37,2013-11-11 14:29:00,
2013-11-11 08:34:00,48.8,44.8,30.30,SE,126,0.0,0.0,86,0.00,CLR,,0.00,272.0,WeatherDisplay:10.37,2013-11-11 14:34:00,
2013-11-11 08:39:00,49.5,44.6,30.30,SE,126,0.0,0.0,83,0.00,CLR,,0.00,302.0,WeatherDisplay:10.37,2013-11-11 14:39:00,
2013-11-11 08:44:00,49.7,44.7,30.30,SE,126,0.0,0.0,83,0.00,CLR,,0.00,316.0,WeatherDisplay:10.37,2013-11-11 14:44:00,
2013-11-11 08:49:00,50.9,43.9,30.30,SE,126,0.9,1.2,77,0.00,CLR,,0.00,255.0,WeatherDisplay:10.37,2013-11-11 14:49:00,
2013-11-11 08:54:00,51.8,44.8,30.30,ENE,66,0.0,1.2,77,0.00,CLR,,0.00,341.0,WeatherDisplay:10.37,2013-11-11 14:54:00,
2013-11-11 08:59:00,52.3,43.9,30.30,NNE,14,0.1,2.3,73,0.00,CLR,,0.00,330.0,WeatherDisplay:10.37,2013-11-11 14:59:00,
2013-11-11 09:04:00,53.1,44.3,30.30,East,83,1.1,2.6,72,0.00,CLR,,0.00,343.0,WeatherDisplay:10.37,2013-11-11 15:04:00,
2013-11-11 09:09:00,53.7,43.8,30.30,North,355,1.0,1.3,69,0.00,CLR,,0.00,357.0,WeatherDisplay:10.37,2013-11-11 15:09:00,
2013-11-11 09:14:00,53.9,43.6,30.30,ESE,109,3.2,4.0,68,0.00,CLR,,0.00,371.0,WeatherDisplay:10.37,2013-11-11 15:14:00,
2013-11-11 09:19:00,54.2,44.2,30.30,North,355,3.8,4.0,69,0.00,CLR,,0.00,387.0,WeatherDisplay:10.37,2013-11-11 15:19:00,
2013-11-11 09:24:00,54.1,42.6,30.30,SE,131,2.4,5.8,65,0.00,CLR,,0.00,397.0,WeatherDisplay:10.37,2013-11-11 15:24:00,
2013-11-11 09:29:00,54.8,44.4,30.30,WNW,292,1.4,4.0,68,0.00,CLR,,0.00,410.0,WeatherDisplay:10.37,2013-11-11 15:29:00,
2013-11-11 09:34:00,55.4,42.6,30.30,ENE,69,0.2,3.5,62,0.00,CLR,,0.00,418.0,WeatherDisplay:10.37,2013-11-11 15:34:00,
2013-11-11 09:39:00,55.8,44.2,30.30,ESE,104,1.2,5.3,65,0.00,CLR,,0.00,431.0,WeatherDisplay:10.37,2013-11-11 15:39:00,
2013-11-11 09:44:00,55.3,42.5,30.30,SE,146,0.0,3.5,62,0.00,CLR,,0.00,441.0,WeatherDisplay:10.37,2013-11-11 15:44:00,
2013-11-11 09:49:00,56.1,44.1,30.29,North,9,2.5,5.3,64,0.00,CLR,,0.00,454.0,WeatherDisplay:10.37,2013-11-11 15:49:00,
2013-11-11 09:54:00,56.9,44.0,30.29,NE,34,0.2,2.3,62,0.00,CLR,,0.00,464.0,WeatherDisplay:10.37,2013-11-11 15:54:00,
2013-11-11 09:59:00,56.8,43.1,30.29,East,92,0.0,1.2,60,0.00,CLR,,0.00,475.0,WeatherDisplay:10.37,2013-11-11 15:59:00,
2013-11-11 10:04:00,57.5,43.3,30.29,East,94,3.0,3.0,59,0.00,CLR,,0.00,483.0,WeatherDisplay:10.37,2013-11-11 16:04:00,
2013-11-11 10:09:00,57.2,43.9,30.29,SW,224,1.7,2.6,61,0.00,CLR,,0.00,490.0,WeatherDisplay:10.37,2013-11-11 16:09:00,
2013-11-11 10:14:00,57.5,43.7,30.29,SE,146,1.7,2.3,60,0.00,CLR,,0.00,499.0,WeatherDisplay:10.37,2013-11-11 16:14:00,
2013-11-11 10:19:00,58.1,45.1,30.28,SSE,165,1.0,1.3,62,0.00,CLR,,0.00,510.0,WeatherDisplay:10.37,2013-11-11 16:19:00,
2013-11-11 10:24:00,59.1,43.9,30.28,ENE,74,2.1,2.3,57,0.00,CLR,,0.00,517.0,WeatherDisplay:10.37,2013-11-11 16:24:00,
2013-11-11 10:29:00,59.5,43.3,30.28,NNE,22,0.6,2.3,55,0.00,CLR,,0.00,534.0,WeatherDisplay:10.37,2013-11-11 16:29:00,
2013-11-11 10:34:00,59.1,43.4,30.28,SSW,209,4.4,5.8,56,0.00,CLR,,0.00,541.0,WeatherDisplay:10.37,2013-11-11 16:34:00,
2013-11-11 10:39:00,59.5,43.3,30.28,SW,214,2.5,5.8,55,0.00,CLR,,0.00,541.0,WeatherDisplay:10.37,2013-11-11 16:39:00,
2013-11-11 10:44:00,59.8,44.1,30.28,ESE,103,1.1,2.3,56,0.00,CLR,,0.00,547.0,WeatherDisplay:10.37,2013-11-11 16:44:00,
2013-11-11 10:49:00,60.1,43.9,30.27,SE,126,0.0,0.0,55,0.00,CLR,,0.00,550.0,WeatherDisplay:10.37,2013-11-11 16:49:00,
2013-11-11 10:54:00,60.6,44.3,30.27,ESE,117,1.3,2.3,55,0.00,CLR,,0.00,557.0,WeatherDisplay:10.37,2013-11-11 16:54:00,
2013-11-11 10:59:00,61.3,44.5,30.27,SSE,160,0.0,2.3,54,0.00,CLR,,0.00,563.0,WeatherDisplay:10.37,2013-11-11 16:59:00,
2013-11-11 11:04:00,61.3,44.5,30.27,East,87,0.0,1.2,54,0.00,BKN,,0.00,570.0,WeatherDisplay:10.37,2013-11-11 17:04:00,
2013-11-11 11:09:00,61.5,44.2,30.26,South,170,1.2,1.3,53,0.00,BKN,,0.00,573.0,WeatherDisplay:10.37,2013-11-11 17:09:00,
2013-11-11 11:14:00,61.4,43.6,30.26,South,186,1.3,3.5,52,0.00,BKN,,0.00,580.0,WeatherDisplay:10.37,2013-11-11 17:14:00,
2013-11-11 11:19:00,61.8,45.5,30.26,SSW,213,3.1,3.5,55,0.00,BKN,,0.00,582.0,WeatherDisplay:10.37,2013-11-11 17:19:00,
2013-11-11 11:24:00,62.0,44.7,30.25,SSE,163,1.8,2.6,53,0.00,BKN,,0.00,582.0,WeatherDisplay:10.37,2013-11-11 17:24:00,
2013-11-11 11:29:00,61.9,44.6,30.25,NW,311,2.0,5.3,53,0.00,BKN,,0.00,589.0,WeatherDisplay:10.37,2013-11-11 17:29:00,
2013-11-11 11:34:00,62.6,44.2,30.25,SW,222,1.8,2.6,51,0.00,BKN,,0.00,589.0,WeatherDisplay:10.37,2013-11-11 17:34:00,
2013-11-11 11:39:00,63.1,44.7,30.25,WSW,241,2.7,3.5,51,0.00,BKN,,0.00,591.0,WeatherDisplay:10.37,2013-11-11 17:39:00,
2013-11-11 11:44:00,63.4,45.5,30.24,WNW,300,3.1,3.5,52,0.00,BKN,,0.00,591.0,WeatherDisplay:10.37,2013-11-11 17:44:00,
2013-11-11 11:49:00,63.5,45.0,30.24,WNW,300,0.1,1.3,51,0.00,BKN,,0.00,591.0,WeatherDisplay:10.37,2013-11-11 17:49:00,
2013-11-11 11:54:00,63.5,44.5,30.24,ESE,111,0.0,2.3,50,0.00,BKN,,0.00,591.0,WeatherDisplay:10.37,2013-11-11 17:54:00,
2013-11-11 11:59:00,63.9,44.9,30.24,SE,132,1.9,2.6,50,0.00,BKN,,0.00,592.0,WeatherDisplay:10.37,2013-11-11 17:59:00,
2013-11-11 12:04:00,64.0,46.0,30.23,WNW,302,4.3,5.3,52,0.00,CLR,,0.00,592.0,WeatherDisplay:10.37,2013-11-11 18:04:00,
2013-11-11 12:09:00,64.1,46.1,30.23,NE,48,0.3,0.0,52,0.00,CLR,,0.00,592.0,WeatherDisplay:10.37,2013-11-11 18:09:00,
2013-11-11 12:14:00,64.2,46.2,30.22,NW,309,0.7,1.2,52,0.00,CLR,,0.00,592.0,WeatherDisplay:10.37,2013-11-11 18:14:00,
2013-11-11 12:19:00,64.9,45.8,30.22,NNW,342,4.0,6.9,50,0.00,CLR,,0.00,589.0,WeatherDisplay:10.37,2013-11-11 18:19:00,
2013-11-11 12:24:00,65.3,45.6,30.22,NNW,340,2.0,5.8,49,0.00,CLR,,0.00,587.0,WeatherDisplay:10.37,2013-11-11 18:24:00,
2013-11-11 12:29:00,65.8,46.1,30.21,North,11,0.0,3.5,49,0.00,CLR,,0.00,587.0,WeatherDisplay:10.37,2013-11-11 18:29:00,
2013-11-11 12:34:00,65.7,46.5,30.21,NNW,329,3.4,5.8,50,0.00,CLR,,0.00,580.0,WeatherDisplay:10.37,2013-11-11 18:34:00,
2013-11-11 12:39:00,65.9,46.7,30.21,NNE,17,3.5,3.5,50,0.00,CLR,,0.00,578.0,WeatherDisplay:10.37,2013-11-11 18:39:00,
2013-11-11 12:44:00,65.7,46.5,30.20,SE,125,0.9,1.2,50,0.00,CLR,,0.00,577.0,WeatherDisplay:10.37,2013-11-11 18:44:00,
2013-11-11 12:49:00,66.4,47.7,30.20,NW,313,0.0,0.0,51,0.00,CLR,,0.00,573.0,WeatherDisplay:10.37,2013-11-11 18:49:00,
2013-11-11 12:54:00,66.3,46.6,30.20,NNW,338,0.0,0.0,49,0.00,CLR,,0.00,570.0,WeatherDisplay:10.37,2013-11-11 18:54:00,
2013-11-11 12:59:00,66.5,48.3,30.20,West,260,0.0,0.0,52,0.00,CLR,,0.00,566.0,WeatherDisplay:10.37,2013-11-11 18:59:00,
2013-11-11 13:04:00,66.8,47.0,30.20,West,274,0.0,0.0,49,0.00,CLR,,0.00,561.0,WeatherDisplay:10.37,2013-11-11 19:04:00,
2013-11-11 13:10:00,67.3,46.9,30.19,NW,318,2.8,4.0,48,0.00,CLR,,0.00,557.0,WeatherDisplay:10.37,2013-11-11 19:10:00,
2013-11-11 13:15:00,67.0,46.1,30.19,SSW,210,2.8,5.8,47,0.00,CLR,,0.00,548.0,WeatherDisplay:10.37,2013-11-11 19:15:00,
2013-11-11 13:20:00,67.4,47.6,30.19,NNW,342,2.3,5.8,49,0.00,CLR,,0.00,541.0,WeatherDisplay:10.37,2013-11-11 19:20:00,
2013-11-11 13:25:00,67.5,47.1,30.19,NW,315,1.6,2.3,48,0.00,CLR,,0.00,536.0,WeatherDisplay:10.37,2013-11-11 19:25:00,
2013-11-11 13:30:00,67.9,48.0,30.19,South,173,2.0,5.3,49,0.00,CLR,,0.00,529.0,WeatherDisplay:10.37,2013-11-11 19:30:00,
2013-11-11 13:35:00,68.2,46.6,30.19,West,260,4.2,6.9,46,0.00,CLR,,0.00,522.0,WeatherDisplay:10.37,2013-11-11 19:35:00,
2013-11-11 13:40:00,67.6,46.1,30.19,West,264,0.8,2.3,46,0.00,CLR,,0.00,512.0,WeatherDisplay:10.37,2013-11-11 19:40:00,
2013-11-11 13:45:00,67.9,46.9,30.19,West,262,0.5,1.3,47,0.00,CLR,,0.00,503.0,WeatherDisplay:10.37,2013-11-11 19:45:00,
2013-11-11 13:50:00,68.0,47.6,30.19,SW,218,2.4,6.9,48,0.00,CLR,,0.00,494.0,WeatherDisplay:10.37,2013-11-11 19:50:00,
2013-11-11 13:55:00,67.7,46.2,30.18,SSW,196,3.0,5.8,46,0.00,CLR,,0.00,483.0,WeatherDisplay:10.37,2013-11-11 19:55:00,
2013-11-11 14:00:00,67.7,47.3,30.18,WNW,289,3.1,3.5,48,0.00,CLR,,0.00,473.0,WeatherDisplay:10.37,2013-11-11 20:00:00,
2013-11-11 14:05:00,67.9,47.5,30.19,SSE,166,2.8,3.5,48,0.00,FEW,,0.00,464.0,WeatherDisplay:10.37,2013-11-11 20:05:00,
2013-11-11 14:10:00,67.7,46.7,30.18,SSW,208,4.3,5.8,47,0.00,FEW,,0.00,454.0,WeatherDisplay:10.37,2013-11-11 20:10:00,
2013-11-11 14:15:00,67.5,47.1,30.18,South,187,1.6,2.3,48,0.00,FEW,,0.00,441.0,WeatherDisplay:10.37,2013-11-11 20:15:00,
2013-11-11 14:20:00,67.6,47.2,30.18,SSW,205,3.1,3.5,48,0.00,FEW,,0.00,431.0,WeatherDisplay:10.37,2013-11-11 20:20:00,
2013-11-11 14:25:00,68.1,47.7,30.18,South,188,4.3,6.9,48,0.00,FEW,,0.00,420.0,WeatherDisplay:10.37,2013-11-11 20:25:00,
2013-11-11 14:30:00,68.1,47.1,30.18,SSW,194,6.2,10.4,47,0.00,FEW,,0.00,397.0,WeatherDisplay:10.37,2013-11-11 20:30:00,
2013-11-11 14:35:00,68.2,47.2,30.18,SSW,211,5.4,6.9,47,0.00,FEW,,0.00,399.0,WeatherDisplay:10.37,2013-11-11 20:35:00,
2013-11-11 14:40:00,68.0,47.6,30.18,SW,226,2.1,3.5,48,0.00,FEW,,0.00,383.0,WeatherDisplay:10.37,2013-11-11 20:40:00,
2013-11-11 14:45:00,68.4,47.9,30.17,SSW,208,1.4,5.3,48,0.00,FEW,,0.00,366.0,WeatherDisplay:10.37,2013-11-11 20:45:00,
2013-11-11 14:50:00,68.5,47.5,30.17,SSW,193,5.0,8.1,47,0.00,FEW,,0.00,359.0,WeatherDisplay:10.37,2013-11-11 20:50:00,
2013-11-11 14:55:00,68.4,47.9,30.17,SW,214,1.7,3.5,48,0.00,FEW,,0.00,346.0,WeatherDisplay:10.37,2013-11-11 20:55:00,
2013-11-11 15:00:00,68.4,47.9,30.17,SSW,213,2.7,4.0,48,0.00,FEW,,0.00,334.0,WeatherDisplay:10.37,2013-11-11 21:00:00,
2013-11-11 15:05:00,68.5,48.0,30.17,SSW,194,2.8,5.8,48,0.00,CLR,,0.00,320.0,WeatherDisplay:10.37,2013-11-11 21:05:00,
2013-11-11 15:10:00,68.5,48.6,30.17,SSW,200,3.6,8.1,49,0.00,CLR,,0.00,306.0,WeatherDisplay:10.37,2013-11-11 21:10:00,
2013-11-11 15:15:00,68.8,47.7,30.17,West,260,1.8,2.3,47,0.00,CLR,,0.00,292.0,WeatherDisplay:10.37,2013-11-11 21:15:00,
2013-11-11 15:20:00,68.8,47.7,30.17,SW,227,4.7,8.1,47,0.00,CLR,,0.00,278.0,WeatherDisplay:10.37,2013-11-11 21:20:00,
2013-11-11 15:25:00,68.5,48.0,30.17,SW,235,3.9,6.9,48,0.00,CLR,,0.00,264.0,WeatherDisplay:10.37,2013-11-11 21:25:00,
2013-11-11 15:30:00,68.1,47.7,30.17,South,191,1.0,8.1,48,0.00,CLR,,0.00,250.0,WeatherDisplay:10.37,2013-11-11 21:30:00,
2013-11-11 15:35:00,68.3,48.4,30.17,SW,215,2.5,2.5,49,0.00,CLR,,0.00,230.0,WeatherDisplay:10.37,2013-11-11 21:35:00,
2013-11-11 15:40:00,68.2,48.8,30.17,SW,229,3.9,6.9,50,0.00,CLR,,0.00,211.0,WeatherDisplay:10.37,2013-11-11 21:40:00,
2013-11-11 15:45:00,67.8,47.9,30.17,SSW,210,2.9,5.8,49,0.00,CLR,,0.00,195.0,WeatherDisplay:10.37,2013-11-11 21:45:00,
2013-11-11 15:50:00,67.8,47.9,30.17,SW,233,3.2,5.8,49,0.00,CLR,,0.00,176.0,WeatherDisplay:10.37,2013-11-11 21:50:00,
2013-11-11 15:55:00,67.7,48.4,30.17,SSW,205,1.0,2.3,50,0.00,CLR,,0.00,158.0,WeatherDisplay:10.37,2013-11-11 21:55:00,
2013-11-11 16:00:00,67.7,48.4,30.17,SSW,209,3.8,4.0,50,0.00,CLR,,0.00,144.0,WeatherDisplay:10.37,2013-11-11 22:00:00,
2013-11-11 16:05:00,67.6,48.3,30.17,SSW,208,3.0,4.0,50,0.00,CLR,,0.00,123.0,WeatherDisplay:10.37,2013-11-11 22:05:00,
2013-11-11 16:10:00,67.5,48.7,30.17,SSW,199,2.2,3.5,51,0.00,CLR,,0.00,109.0,WeatherDisplay:10.37,2013-11-11 22:10:00,
2013-11-11 16:15:00,67.2,48.5,30.17,SW,219,1.1,2.3,51,0.00,CLR,,0.00,93.0,WeatherDisplay:10.37,2013-11-11 22:15:00,
2013-11-11 16:20:00,67.3,49.1,30.17,SW,229,0.6,2.3,52,0.00,CLR,,0.00,77.0,WeatherDisplay:10.37,2013-11-11 22:20:00,
2013-11-11 16:25:00,67.1,48.4,30.17,SW,224,2.5,2.5,51,0.00,CLR,,0.00,65.0,WeatherDisplay:10.37,2013-11-11 22:25:00,
2013-11-11 16:30:00,66.8,48.6,30.17,SW,217,1.6,1.6,52,0.00,CLR,,0.00,54.0,WeatherDisplay:10.37,2013-11-11 22:30:00,
2013-11-11 16:35:00,66.1,49.5,30.17,SW,217,1.2,2.6,55,0.00,CLR,,0.00,37.0,WeatherDisplay:10.37,2013-11-11 22:35:00,
2013-11-11 16:40:00,65.5,49.9,30.17,SW,217,0.0,0.0,57,0.00,CLR,,0.00,30.0,WeatherDisplay:10.37,2013-11-11 22:40:00,
2013-11-11 16:45:00,64.7,50.5,30.17,SW,217,0.0,0.0,60,0.00,CLR,,0.00,21.0,WeatherDisplay:10.37,2013-11-11 22:45:00,
2013-11-11 16:50:00,64.1,49.5,30.17,SW,217,0.0,0.0,59,0.00,CLR,,0.00,18.0,WeatherDisplay:10.37,2013-11-11 22:50:00,
2013-11-11 16:55:00,63.2,50.0,30.17,SW,217,0.0,0.0,62,0.00,CLR,,0.00,12.0,WeatherDisplay:10.37,2013-11-11 22:55:00,
2013-11-11 17:00:00,62.3,50.4,30.17,SW,217,0.0,0.0,65,0.00,CLR,,0.00,9.0,WeatherDisplay:10.37,2013-11-11 23:00:00,
2013-11-11 17:05:00,61.6,50.5,30.17,SW,217,0.0,0.0,67,0.00,CLR,,0.00,7.0,WeatherDisplay:10.37,2013-11-11 23:05:00,
2013-11-11 17:10:00,60.7,50.5,30.17,SW,217,0.0,0.0,69,0.00,CLR,,0.00,0.0,WeatherDisplay:10.37,2013-11-11 23:10:00,
2013-11-11 17:16:00,59.6,50.2,30.17,SW,217,0.0,0.0,71,0.00,CLR,,0.00,0.0,WeatherDisplay:10.37,2013-11-11 23:16:00,
2013-11-11 17:21:00,59.2,50.5,30.17,SW,217,0.0,0.0,73,0.00,CLR,,0.00,0.0,WeatherDisplay:10.37,2013-11-11 23:21:00,
2013-11-11 17:26:00,58.7,50.4,30.17,SW,217,0.0,0.0,74,0.00,CLR,,0.00,0.0,WeatherDisplay:10.37,2013-11-11 23:26:00,
2013-11-11 17:31:00,58.0,50.1,30.18,SW,217,0.0,0.0,75,0.00,CLR,,0.00,0.0,WeatherDisplay:10.37,2013-11-11 23:31:00,
2013-11-11 17:36:00,57.2,49.7,30.18,SW,217,0.0,0.0,76,0.00,CLR,,0.00,0.0,WeatherDisplay:10.37,2013-11-11 23:36:00,
2013-11-11 17:41:00,56.5,50.1,30.18,SW,217,0.0,0.0,79,0.00,CLR,,0.00,0.0,WeatherDisplay:10.37,2013-11-11 23:41:00,
2013-11-11 17:46:00,56.3,49.9,30.18,SW,217,0.0,0.0,79,0.00,CLR,,0.00,0.0,WeatherDisplay:10.37,2013-11-11 23:46:00,
2013-11-11 17:51:00,56.0,49.6,30.18,SW,217,0.0,0.0,79,0.00,CLR,,0.00,0.0,WeatherDisplay:10.37,2013-11-11 23:51:00,
2013-11-11 17:56:00,55.8,49.4,30.18,SW,217,0.0,0.0,79,0.00,CLR,,0.00,0.0,WeatherDisplay:10.37,2013-11-11 23:56:00,
2013-11-11 18:01:00,55.1,49.0,30.18,SW,217,0.0,0.0,80,0.00,CLR,,0.00,0.0,WeatherDisplay:10.37,2013-11-12 00:01:00,
2013-11-11 18:06:00,55.1,49.4,30.18,SW,217,0.0,0.0,81,0.00,CLR,,0.00,0.0,WeatherDisplay:10.37,2013-11-12 00:06:00,
2013-11-11 18:11:00,54.6,49.2,30.18,SW,217,0.0,0.0,82,0.00,CLR,,0.00,0.0,WeatherDisplay:10.37,2013-11-12 00:11:00,
2013-11-11 18:16:00,54.2,48.8,30.19,SW,217,0.0,0.0,82,0.00,CLR,,0.00,0.0,WeatherDisplay:10.37,2013-11-12 00:16:00,
2013-11-11 18:21:00,53.7,48.7,30.19,SW,217,0.0,0.0,83,0.00,CLR,,0.00,0.0,WeatherDisplay:10.37,2013-11-12 00:21:00,
2013-11-11 18:26:00,53.3,48.6,30.19,SW,217,0.0,0.0,84,0.00,CLR,,0.00,0.0,WeatherDisplay:10.37,2013-11-12 00:26:00,
2013-11-11 18:31:00,53.3,48.9,30.19,SW,217,0.0,0.0,85,0.00,CLR,,0.00,0.0,WeatherDisplay:10.37,2013-11-12 00:31:00,
2013-11-11 18:36:00,53.1,48.7,30.19,SW,217,0.0,0.0,85,0.00,CLR,,0.00,0.0,WeatherDisplay:10.37,2013-11-12 00:36:00,
2013-11-11 18:41:00,53.0,48.6,30.19,SW,217,0.0,0.0,85,0.00,CLR,,0.00,0.0,WeatherDisplay:10.37,2013-11-12 00:41:00,
2013-11-11 18:46:00,52.8,48.7,30.19,SW,217,0.0,0.0,86,0.00,CLR,,0.00,0.0,WeatherDisplay:10.37,2013-11-12 00:46:00,
2013-11-11 18:51:00,52.4,48.3,30.19,SW,217,0.0,0.0,86,0.00,CLR,,0.00,0.0,WeatherDisplay:10.37,2013-11-12 00:51:00,
2013-11-11 18:56:00,52.1,48.3,30.19,SW,217,0.0,0.0,87,0.00,CLR,,0.00,0.0,WeatherDisplay:10.37,2013-11-12 00:56:00,
2013-11-11 19:01:00,52.1,48.3,30.20,SW,217,0.0,0.0,87,0.00,OVC,,0.00,0.0,WeatherDisplay:10.37,2013-11-12 01:01:00,
2013-11-11 19:06:00,52.0,48.3,30.20,SW,217,0.0,0.0,87,0.00,OVC,,0.00,0.0,WeatherDisplay:10.37,2013-11-12 01:06:00,
2013-11-11 19:11:00,51.6,47.9,30.20,SW,217,0.0,0.0,87,0.00,OVC,,0.00,0.0,WeatherDisplay:10.37,2013-11-12 01:11:00,
2013-11-11 19:16:00,51.5,48.1,30.19,SW,217,0.0,0.0,88,0.00,OVC,,0.00,0.0,WeatherDisplay:10.37,2013-11-12 01:16:00,
2013-11-11 19:21:00,51.7,48.3,30.19,SW,217,0.1,1.2,88,0.00,OVC,,0.00,0.0,WeatherDisplay:10.37,2013-11-12 01:21:00,
2013-11-11 19:26:00,51.6,48.2,30.20,SW,217,1.4,1.4,88,0.00,OVC,,0.00,0.0,WeatherDisplay:10.37,2013-11-12 01:26:00,
2013-11-11 19:31:00,51.5,48.1,30.20,SW,219,0.0,0.0,88,0.00,OVC,,0.00,0.0,WeatherDisplay:10.37,2013-11-12 01:31:00,
2013-11-11 19:36:00,51.4,48.0,30.20,SW,219,0.0,0.0,88,0.00,OVC,,0.00,0.0,WeatherDisplay:10.37,2013-11-12 01:36:00,
2013-11-11 19:41:00,51.4,48.3,30.20,SW,219,0.0,0.0,89,0.00,OVC,,0.00,0.0,WeatherDisplay:10.37,2013-11-12 01:41:00,
2013-11-11 19:46:00,51.6,48.5,30.20,SW,219,0.0,0.0,89,0.00,OVC,,0.00,0.0,WeatherDisplay:10.37,2013-11-12 01:46:00,
2013-11-11 19:51:00,51.8,48.4,30.21,SW,219,0.0,0.0,88,0.00,OVC,,0.00,0.0,WeatherDisplay:10.37,2013-11-12 01:51:00,
2013-11-11 19:56:00,51.8,48.4,30.21,SW,219,0.0,0.0,88,0.00,OVC,,0.00,0.0,WeatherDisplay:10.37,2013-11-12 01:56:00,
2013-11-11 20:01:00,51.6,48.2,30.21,SW,219,0.0,0.0,88,0.00,OVC,,0.00,0.0,WeatherDisplay:10.37,2013-11-12 02:01:00,
2013-11-11 20:06:00,51.7,48.6,30.21,SW,219,0.0,0.0,89,0.00,OVC,,0.00,0.0,WeatherDisplay:10.37,2013-11-12 02:06:00,
2013-11-11 20:11:00,51.9,48.8,30.21,SW,219,0.0,0.0,89,0.00,OVC,,0.00,0.0,WeatherDisplay:10.37,2013-11-12 02:11:00,
2013-11-11 20:16:00,52.1,49.0,30.21,SW,219,0.0,0.0,89,0.00,OVC,,0.00,0.0,WeatherDisplay:10.37,2013-11-12 02:16:00,
2013-11-11 20:21:00,52.3,49.2,30.21,SW,219,0.0,0.0,89,0.00,OVC,,0.00,0.0,WeatherDisplay:10.37,2013-11-12 02:21:00,
2013-11-11 20:26:00,52.5,49.4,30.21,SW,219,0.0,0.0,89,0.00,OVC,,0.00,0.0,WeatherDisplay:10.37,2013-11-12 02:26:00,
2013-11-11 20:31:00,52.6,49.1,30.21,SW,219,0.0,0.0,88,0.00,OVC,,0.00,0.0,WeatherDisplay:10.37,2013-11-12 02:31:00,
2013-11-11 20:36:00,52.7,49.2,30.22,SW,219,0.0,0.0,88,0.00,OVC,,0.00,0.0,WeatherDisplay:10.37,2013-11-12 02:36:00,
2013-11-11 20:41:00,52.8,49.3,30.22,SW,219,0.0,0.0,88,0.00,OVC,,0.00,0.0,WeatherDisplay:10.37,2013-11-12 02:41:00,
2013-11-11 20:46:00,52.8,49.3,30.22,SW,219,0.0,0.0,88,0.00,OVC,,0.00,0.0,WeatherDisplay:10.37,2013-11-12 02:46:00,
2013-11-11 20:51:00,52.8,49.6,30.22,SW,219,0.0,0.0,89,0.00,OVC,,0.00,0.0,WeatherDisplay:10.37,2013-11-12 02:51:00,
2013-11-11 20:56:00,52.7,49.5,30.22,SW,219,0.0,0.0,89,0.00,OVC,,0.00,0.0,WeatherDisplay:10.37,2013-11-12 02:56:00,
2013-11-11 21:01:00,52.7,49.5,30.22,SW,219,0.0,0.0,89,0.00,OVC,,0.00,0.0,WeatherDisplay:10.37,2013-11-12 03:01:00,
2013-11-11 21:06:00,52.8,49.6,30.22,SW,219,0.0,0.0,89,0.00,OVC,,0.00,0.0,WeatherDisplay:10.37,2013-11-12 03:06:00,
2013-11-11 21:11:00,52.8,49.6,30.22,SW,219,0.0,0.0,89,0.00,OVC,,0.00,0.0,WeatherDisplay:10.37,2013-11-12 03:11:00,
2013-11-11 21:16:00,52.9,49.4,30.22,SW,219,0.0,0.0,88,0.00,OVC,,0.00,0.0,WeatherDisplay:10.37,2013-11-12 03:16:00,
2013-11-11 21:21:00,53.0,49.5,30.23,SW,219,0.0,0.0,88,0.00,OVC,,0.00,0.0,WeatherDisplay:10.37,2013-11-12 03:21:00,
2013-11-11 21:26:00,53.1,49.9,30.23,SW,219,0.0,0.0,89,0.00,OVC,,0.00,0.0,WeatherDisplay:10.37,2013-11-12 03:26:00,
2013-11-11 21:31:00,53.2,49.7,30.23,SW,219,0.0,0.0,88,0.00,OVC,,0.00,0.0,WeatherDisplay:10.37,2013-11-12 03:31:00,
2013-11-11 21:36:00,53.3,49.8,30.23,SW,219,0.0,0.0,88,0.00,OVC,,0.00,0.0,WeatherDisplay:10.37,2013-11-12 03:36:00,
2013-11-11 21:41:00,53.4,49.9,30.24,SW,219,0.0,0.0,88,0.00,OVC,,0.00,0.0,WeatherDisplay:10.37,2013-11-12 03:41:00,
2013-11-11 21:46:00,53.5,50.0,30.24,SW,219,0.0,0.0,88,0.00,OVC,,0.00,0.0,WeatherDisplay:10.37,2013-11-12 03:46:00,
2013-11-11 21:51:00,53.6,50.1,30.24,SW,219,0.0,0.0,88,0.00,OVC,,0.00,0.0,WeatherDisplay:10.37,2013-11-12 03:51:00,
2013-11-11 21:56:00,53.8,50.3,30.24,SW,219,0.0,0.0,88,0.00,OVC,,0.00,0.0,WeatherDisplay:10.37,2013-11-12 03:56:00,
2013-11-11 22:01:00,53.9,50.4,30.25,SW,219,0.0,0.0,88,0.00,OVC,,0.00,0.0,WeatherDisplay:10.37,2013-11-12 04:01:00,
2013-11-11 22:06:00,54.0,50.5,30.25,SW,219,0.0,0.0,88,0.00,OVC,,0.00,0.0,WeatherDisplay:10.37,2013-11-12 04:06:00,
2013-11-11 22:11:00,54.1,50.6,30.25,SW,219,0.0,0.0,88,0.00,OVC,,0.00,0.0,WeatherDisplay:10.37,2013-11-12 04:11:00,
2013-11-11 22:16:00,54.1,50.6,30.25,SW,219,0.0,0.0,88,0.00,OVC,,0.00,0.0,WeatherDisplay:10.37,2013-11-12 04:16:00,
2013-11-11 22:21:00,54.2,50.7,30.25,SW,219,0.0,0.0,88,0.00,OVC,,0.00,0.0,WeatherDisplay:10.37,2013-11-12 04:21:00,
2013-11-11 22:26:00,54.2,50.7,30.25,SW,219,0.0,0.0,88,0.00,OVC,,0.00,0.0,WeatherDisplay:10.37,2013-11-12 04:26:00,
2013-11-11 22:31:00,54.2,50.7,30.25,SW,219,0.0,0.0,88,0.00,OVC,,0.00,0.0,WeatherDisplay:10.37,2013-11-12 04:31:00,
2013-11-11 22:36:00,54.3,50.8,30.25,SW,219,0.0,0.0,88,0.00,OVC,,0.00,0.0,WeatherDisplay:10.37,2013-11-12 04:36:00,
2013-11-11 22:41:00,54.4,50.9,30.25,SW,219,0.0,0.0,88,0.00,OVC,,0.00,0.0,WeatherDisplay:10.37,2013-11-12 04:41:00,
2013-11-11 22:46:00,54.4,50.9,30.26,SW,219,0.0,0.0,88,0.00,OVC,,0.00,0.0,WeatherDisplay:10.37,2013-11-12 04:46:00,
2013-11-11 22:51:00,54.3,50.8,30.26,SW,219,0.0,0.0,88,0.00,OVC,,0.00,0.0,WeatherDisplay:10.37,2013-11-12 04:51:00,
2013-11-11 22:56:00,54.3,50.8,30.26,SW,219,0.0,0.0,88,0.00,OVC,,0.00,0.0,WeatherDisplay:10.37,2013-11-12 04:56:00,
2013-11-11 23:01:00,54.4,50.9,30.26,SW,219,0.0,0.0,88,0.00,OVC,,0.00,0.0,WeatherDisplay:10.37,2013-11-12 05:01:00,
2013-11-11 23:02:00,54.4,50.9,30.26,SW,219,0.0,0.0,88,0.00,OVC,,0.00,0.0,WeatherDisplay:10.37,2013-11-12 05:02:00,
2013-11-11 23:05:00,54.4,50.9,30.26,SW,219,0.0,0.0,88,0.00,OVC,,0.00,0.0,WeatherDisplay:10.37,2013-11-12 05:05:00,
2013-11-11 23:10:00,54.4,50.9,30.26,SW,219,0.0,0.0,88,0.00,OVC,,0.00,0.0,WeatherDisplay:10.37,2013-11-12 05:10:00,
2013-11-11 23:15:00,54.4,50.9,30.26,SW,219,0.0,0.0,88,0.00,OVC,,0.00,0.0,WeatherDisplay:10.37,2013-11-12 05:15:00,
2013-11-11 23:20:00,54.4,50.9,30.26,SW,219,0.0,0.0,88,0.00,OVC,,0.00,0.0,WeatherDisplay:10.37,2013-11-12 05:20:00,
2013-11-11 23:25:00,54.5,51.0,30.25,SW,219,0.0,0.0,88,0.00,OVC,,0.00,0.0,WeatherDisplay:10.37,2013-11-12 05:25:00,
2013-11-11 23:30:00,54.5,50.7,30.25,SW,219,0.0,0.0,87,0.00,OVC,,0.00,0.0,WeatherDisplay:10.37,2013-11-12 05:30:00,
2013-11-11 23:35:00,54.5,50.7,30.25,SW,219,0.0,0.0,87,0.00,OVC,,0.00,0.0,WeatherDisplay:10.37,2013-11-12 05:35:00,
2013-11-11 23:40:00,54.4,50.6,30.26,SW,219,0.0,0.0,87,0.00,OVC,,0.00,0.0,WeatherDisplay:10.37,2013-11-12 05:40:00,
2013-11-11 23:45:00,54.1,50.6,30.26,SW,219,0.0,0.0,88,0.00,OVC,,0.00,0.0,WeatherDisplay:10.37,2013-11-12 05:45:00,
2013-11-11 23:50:00,54.1,50.6,30.26,SW,219,0.0,0.0,88,0.00,OVC,,0.00,0.0,WeatherDisplay:10.37,2013-11-12 05:50:00,
2013-11-11 23:55:00,54.0,50.5,30.26,SW,219,0.0,0.0,88,0.00,OVC,,0.00,0.0,WeatherDisplay:10.37,2013-11-12 05:55:00,